Simultaneous Nadir Overpasses (SNOs) Predictions

Prediction of SNOs between NOAA-20 and LANDSAT-8 Satellite Orbit:

Table of predicted SNOs for the next 14.0 days since TLE Epoch: 12/15/2018
Index Date (NOAA-20) Time (NOAA-20) Lat,Lon (NOAA-20) SZA (NOAA-20 ) Date (LANDSAT-8) Time (LANDSAT-8) Lat,Lon (LANDSAT-8) SZA (LANDSAT-8 ) Distance(km) Time Diff (sec)
1 12/15/2018 06:32:12 -71.05,-103.33 85.76 12/15/2018 06:33:18 -70.93,-100.73 85.91 94.96 66
2 12/15/2018 07:22:39 70.03, 65.61 93.21 12/15/2018 07:23:00 70.01, 65.55 93.18 3.18 21
3 12/15/2018 08:13:21 -69.95,-126.95 86.88 12/15/2018 08:12:29 -69.95,-126.90 86.88 1.83 52
4 12/17/2018 22:48:52 -70.13, 13.92 86.59 12/17/2018 22:50:01 -70.14, 13.97 86.58 2.28 69
5 12/17/2018 23:39:36 70.01,-178.59 93.30 12/17/2018 23:39:29 69.98,-178.61 93.27 3.19 7
6 12/18/2018 00:30:14 -69.71, -10.82 87.01 12/18/2018 00:29:01 -69.76, -11.28 86.95 18.76 73
7 12/20/2018 15:05:47 -70.05, 129.81 86.61 12/20/2018 15:06:30 -70.06, 129.73 86.60 3.03 43
8 12/20/2018 15:56:31 69.93, -62.71 93.28 12/20/2018 15:55:57 69.95, -62.77 93.30 3.17 34
9 12/23/2018 06:32:12 70.65, 77.32 94.02 12/23/2018 06:33:21 70.57, 78.73 93.91 52.97 69
10 12/23/2018 07:22:44 -70.02,-114.39 86.63 12/23/2018 07:22:59 -70.03,-114.43 86.63 1.53 15
11 12/23/2018 08:13:28 69.91, 53.09 93.26 12/23/2018 08:12:26 69.91, 53.06 93.27 1.22 62
12 12/25/2018 22:48:59 70.10,-166.06 93.41 12/25/2018 22:49:58 70.10,-166.08 93.40 0.83 59
13 12/25/2018 23:39:41 -70.00, 1.41 86.70 12/25/2018 23:39:28 -70.00, 1.41 86.71 0.57 13
14 12/26/2018 00:30:14 69.31, 169.74 92.59 12/26/2018 00:29:05 69.33, 168.15 92.65 62.53 69
15 12/28/2018 15:05:56 70.09, -50.27 93.29 12/28/2018 15:06:27 70.06, -50.24 93.26 2.70 31
16 12/28/2018 15:56:38 -69.98, 117.21 86.83 12/28/2018 15:55:57 -69.96, 117.25 86.84 2.53 41




NCC Satellite Simultaneous Nadir Overpasses (SNOs) Prediction Service
